Wind_Speed
12 15 18 17 17 16 17 19 16 18 21 24 23 22 21 18 11 18 31 29 27 27 26 27 24 25 24 23 23 22 25 27 26 26 26 24 24 24 23 24 21 19 21 20
16 25 19 14 19 21 22 22 18 21 23 26 28 25 23 25 21 32 34 34 29 32 34 31 29 26 28 28 25 24 25 28 30 30 29 26 27 27 26 27 29 28 27 22
19 13 20 25 24 25 28 25 23 25 24 25 24 24 25 28 26 24 36 30 31 40 41 46 40 36 32 35 34 35 37 36 34 32 33 33 31 33 34 32 39 39 38 28
29 30 29 28 28 30 28 25 26 27 28 29 29 28 28 23 29 38 46 44 47 45 41 24 54 46 42 40 42 45 48 49 44 43 40 39 36 34 35 36 40 42 43 34
27 28 27 20 27 28 30 29 30 31 32 33 32 34 32 37 45 49 48 47 46 44 39 34 36 40 40 42 38 40 46 53 52 50 45 40 41 40 39 39 41 40 34 38
28 29 30 35 34 32 31 31 32 29 31 36 37 37 39 42 45 44 42 39 38 37 38 36 34 33 23 43 43 44 50 46 45 47 47 49 47 48 46 43 45 50 41 45
29 30 29 29 30 31 33 34 35 37 38 39 40 41 40 39 39 37 37 37 36 35 36 38 34 33 34 44 45 32 42 48 48 45 40 50 52 49 41 44 45 46 49 45
28 27 35 30 35 35 36 37 38 38 39 40 39 37 33 34 35 35 32 33 36 39 37 39 38 32 35 35 33 49 44 41 46 47 38 40 65 41 51 43 43 49 55 49
36 39 38 40 41 41 39 38 39 38 35 33 34 33 31 33 30 31 32 35 37 36 43 40 42 37 34 48 45 50 45 44 43 46 47 53 61 55 45 46 54 51 54 60
36 36 37 40 40 38 39 39 37 34 33 33 33 33 29 31 32 34 35 38 42 43 42 47 47 46 46 44 47 45 48 47 48 48 50 53 60 59 60 56 65 70 53 54
37 37 38 38 38 37 35 33 31 31 32 32 32 33 29 34 37 40 41 43 47 49 47 48 51 52 55 55 54 52 50 52 49 47 51 55 64 71 67 59 54 55 65 61
39 39 39 38 35 34 33 31 31 31 32 31 33 35 34 35 37 40 44 43 43 48 50 50 53 54 56 60 61 61 60 57 54 56 47 53 62 66 75 77 69 69 63 62
39 39 38 35 35 34 33 33 32 32 33 33 34 37 41 44 44 43 44 44 44 51 52 54 57 59 59 63 67 69 64 60 60 49 46 49 55 62 73 85 86 68 64 64
37 37 36 35 36 34 35 33 33 33 32 34 39 39 42 42 42 44 46 48 50 53 58 59 62 64 65 70 74 75 69 64 50 30 31 40 45 56 67 79 86 88 78 76
35 34 34 35 34 33 32 34 34 34 35 37 40 40 42 42 42 45 48 50 51 54 53 63 65 69 73 82 79 79 74 55 33 15 13 64 47 50 62 74 81 84 93 93
34 36 34 36 33 33 35 36 37 38 39 40 40 40 44 45 47 48 51 56 58 60 62 68 70 75 85 87 85 77 66 49 32 45 50 55 43 44 45 52 64 78 86 87
34 33 34 35 36 34 38 37 40 41 45 43 43 43 45 48 51 54 55 61 65 67 68 75 77 81 88 86 75 57 35 27 31 44 44 29 40 41 46 53 55 63 70 83
35 35 36 38 40 39 43 42 42 43 49 46 46 50 49 52 54 57 59 63 66 70 72 72 79 85 87 70 51 36 19 20 30 31 38 37 35 35 38 41 49 57 62 68
38 39 40 41 43 43 48 48 45 45 50 48 47 52 53 57 61 64 64 66 68 71 74 78 81 86 86 59 45 21 16 19 33 35 39 39 42 43 42 46 46 48 55 62
43 43 43 47 47 48 52 55 45 50 56 52 55 55 59 63 65 68 69 68 68 71 73 76 80 84 78 47 33 16 8 12 13 20 33 36 38 43 39 40 37 35 37 43
45 47 50 51 49 52 57 55 54 57 57 59 60 62 64 65 67 67 68 68 69 71 72 73 79 79 71 37 22 14 11 13 18 21 18 18 21 24 23 26 28 27 25 28
50 52 51 52 54 57 60 60 58 60 62 63 65 67 68 68 69 69 70 68 68 70 70 72 74 74 71 42 26 19 16 17 17 16 18 22 22 21 19 20 20 24 26 27
55 60 59 61 61 64 64 63 65 66 67 69 71 72 73 71 69 70 69 68 69 69 70 71 75 53 66 45 28 26 21 19 17 17 20 22 26 25 24 27 29 32 33 32
64 67 67 68 69 70 74 74 72 70 70 72 72 72 71 71 71 71 71 70 71 72 71 68 48 55 66 46 28 24 25 24 24 23 22 20 21 23 23 22 24 25 27 30
70 73 74 74 75 74 75 78 80 79 77 77 76 75 76 74 74 75 77 77 77 75 72 62 56 64 60 45 38 25 29 31 28 25 23 22 22 24 25 27 26 24 26 28
76 78 79 78 83 82 80 80 84 85 84 84 83 83 82 82 79 81 81 79 76 73 70 66 60 57 56 46 34 31 33 32 28 28 26 26 24 25 26 26 28 30 31 30
Wind_Direction
334 264 261 237 270 276 288 289 279 278 287 294 300 296 292 289 315 294 298 303 303 296 289 287 288 287 272 283 280 278 279 282 283 280 277 278 274 269 271 274 272 274 282 286
252 263 252 253 272 280 286 296 292 278 274 282 280 288 286 291 281 271 300 300 297 302 296 291 279 283 272 270 270 272 281 281 279 281 278 273 276 279 275 272 267 268 267 285
262 253 242 260 272 272 281 290 276 289 294 292 284 289 293 281 275 287 300 289 296 302 303 307 292 283 274 265 264 270 274 278 272 273 274 272 270 274 276 277 277 270 264 266
254 253 272 277 271 278 284 286 286 292 292 290 287 290 300 256 240 288 294 292 289 292 292 270 287 285 284 278 268 271 275 277 272 268 269 268 268 272 272 279 282 277 273 262
265 271 278 270 279 281 284 287 289 291 287 285 285 284 286 273 276 284 288 291 291 291 286 283 283 289 293 286 279 270 278 276 277 273 267 264 264 262 264 266 270 279 281 266
276 277 268 269 284 285 285 287 288 290 291 291 290 288 286 285 286 289 291 294 295 295 294 293 290 293 290 289 288 277 276 278 277 276 274 269 264 262 269 266 265 264 275 276
275 280 272 278 279 285 287 289 293 294 291 288 291 291 290 293 295 295 294 291 290 295 297 299 290 295 293 293 288 255 287 286 281 276 282 291 276 270 258 271 269 258 269 274
262 255 275 269 288 287 287 290 292 292 295 297 299 298 296 294 292 293 295 300 306 307 306 305 304 307 302 283 289 290 286 287 284 275 258 246 257 263 268 270 268 258 258 264
261 266 267 272 282 285 291 293 294 296 294 292 290 286 287 288 289 297 302 306 304 304 305 305 305 307 299 290 300 288 287 287 282 273 262 240 240 254 244 248 256 254 253 265
262 267 271 274 279 285 291 291 292 289 285 283 285 289 296 298 301 303 304 307 307 308 307 306 305 304 301 296 290 289 290 287 285 277 263 249 241 238 247 251 251 256 254 258
266 268 272 279 285 288 286 282 278 279 282 287 290 295 301 307 306 306 306 312 311 307 307 305 304 306 306 306 305 301 297 294 290 277 270 257 242 241 241 228 241 255 250 253
270 275 279 281 279 277 275 271 274 279 285 287 291 297 302 301 302 302 301 300 303 305 309 308 308 310 312 309 306 302 300 299 294 287 277 263 252 245 238 240 246 250 246 247
274 276 276 274 269 269 266 268 274 281 284 286 294 300 302 303 302 301 303 304 310 310 311 312 314 312 311 309 307 304 302 301 303 294 277 260 249 246 244 243 243 246 240 238
268 265 262 262 263 264 265 268 279 284 289 294 294 297 299 301 305 306 308 311 313 313 313 315 316 314 313 311 308 304 302 301 302 295 284 278 253 247 248 246 245 243 242 243
260 258 258 258 260 264 270 278 282 282 284 288 294 298 300 303 308 312 313 312 310 310 309 313 316 316 315 314 309 304 299 293 277 183 284 264 271 252 249 247 246 246 246 249
256 257 258 262 263 270 279 280 283 285 287 291 294 297 301 307 308 309 312 313 314 314 316 316 320 319 319 315 309 301 295 288 256 210 225 244 263 259 245 244 247 245 246 246
258 261 264 268 270 275 277 280 282 287 289 292 295 300 302 307 309 311 316 317 318 318 320 320 322 323 321 318 311 301 286 268 236 222 231 256 265 263 254 247 245 243 245 241
266 268 270 270 274 278 278 278 282 286 288 293 300 301 306 306 307 308 314 315 316 318 319 322 324 329 331 323 316 297 272 228 223 214 226 231 243 245 248 247 251 246 243 241
270 271 271 270 273 273 275 276 282 284 284 292 292 293 298 302 305 309 312 312 315 318 321 325 329 335 340 332 334 293 245 222 215 218 226 230 236 243 249 254 256 260 259 254
272 269 269 272 273 273 275 278 281 282 283 291 290 295 298 302 305 306 307 310 313 317 322 326 331 338 342 331 337 332 275 239 242 234 240 244 252 254 259 261 264 262 262 258
268 269 275 275 271 274 276 280 281 281 287 288 291 293 296 299 300 302 305 309 313 318 322 326 331 337 340 319 348 354 343 326 301 286 258 260 265 267 264 264 264 270 269 268
274 274 274 273 277 279 283 281 281 284 286 287 289 291 293 296 298 301 304 309 313 315 320 325 329 333 336 316 317 319 317 309 302 279 276 272 266 276 283 290 275 277 279 278
275 276 277 279 280 279 276 278 281 283 284 287 288 291 293 295 298 301 304 307 309 312 317 322 320 332 334 310 302 314 303 303 303 291 281 273 269 277 278 277 277 281 284 281
277 277 278 279 278 279 282 282 280 281 283 285 287 288 290 293 296 298 300 302 305 308 312 321 319 329 325 305 291 299 304 300 295 294 294 290 284 283 282 281 279 279 276 277
278 278 278 279 277 277 279 282 285 285 285 286 287 288 290 291 293 294 296 298 300 303 306 311 298 309 315 311 273 278 296 291 289 287 293 296 291 284 283 281 281 286 286 290
279 279 278 278 279 279 278 278 280 281 283 284 285 285 286 288 289 290 292 295 298 301 304 307 310 312 316 313 275 262 285 282 282 279 284 295 294 287 284 286 286 283 292 289
Height
11035 11045 11043 11043 11044 11045 11042 11038 11040 11041 11039 11036 11034 11036 11037 11041 11046 11006 11029 11025 11025 11025 11025 11024 11023 11021 11019 11018 11017 11015 11015 11014 11013 11013 11012 11011 11010 11011 11011 11010 11010 11011 11009 11007
11044 11040 11039 11039 11042 11041 11038 11036 11035 11035 11036 11035 11034 11031 11032 11032 11032 11030 11024 11021 11018 11018 11019 11019 11017 11015 11013 11012 11011 11010 11009 11009 11008 11007 11007 11006 11006 11005 11004 11003 11004 11004 11002 11000
11037 11033 11033 11034 11035 11035 11033 11032 11031 11030 11030 11029 11027 11028 11027 11024 11019 11019 11019 11015 11013 11012 11014 11016 11011 11008 11007 11006 11006 11004 11003 11003 11001 10999 10999 10999 10998 10997 10996 10996 10996 10996 10995 10995
11033 11031 11031 11029 11030 11028 11028 11027 11026 11025 11026 11024 11023 11022 11023 11017 11015 11011 11012 11007 11007 11009 11009 11006 11005 10997 10998 11000 10996 10992 10992 10993 10993 10990 10988 10988 10988 10987 10986 10988 10988 10985 10987 10987
11028 11027 11026 11025 11026 11024 11022 11022 11021 11020 11019 11017 11016 11014 11016 11013 11010 11006 11004 10999 10996 10994 10999 11001 10994 10990 10991 10986 10985 10969 10969 10976 10980 10979 10977 10977 10976 10975 10976 10976 10977 10978 10981 10979
11020 11021 11021 11020 11018 11018 11017 11015 11014 11014 11012 11011 11007 11007 11004 11002 10999 10996 10992 10990 10986 10984 10981 10981 10983 10985 10970 10967 10972 10969 10960 10962 10965 10968 10969 10966 10966 10965 10967 10965 10966 10964 10968 10967
11012 11012 11013 11011 11012 11012 11011 11009 11007 11005 11004 11002 10998 10995 10996 10992 10988 10986 10983 10981 10977 10975 10972 10968 10976 10978 10982 10971 10965 10958 10952 10947 10950 10957 10965 10963 10953 10950 10953 10952 10952 10951 10952 10952
11008 11009 11007 11006 11006 11005 11004 11002 11000 10998 10993 10990 10987 10984 10985 10983 10980 10976 10975 10971 10967 10963 10963 10960 10962 10970 10962 10945 10936 10942 10942 10938 10938 10943 10954 10945 10937 10939 10941 10939 10936 10935 10937 10938
11003 11002 11001 11000 10999 10997 10994 10992 10991 10988 10985 10982 10980 10979 10981 10975 10973 10969 10966 10962 10959 10957 10950 10950 10950 10955 10953 10940 10933 10938 10931 10928 10927 10926 10927 10923 10918 10925 10928 10925 10918 10917 10920 10922
10997 10995 10994 10993 10991 10989 10986 10984 10982 10981 10979 10976 10973 10970 10970 10966 10963 10959 10956 10953 10948 10945 10943 10936 10935 10936 10937 10940 10935 10928 10917 10913 10910 10907 10905 10905 10903 10906 10905 10903 10902 10898 10902 10904
10990 10989 10987 10985 10982 10980 10978 10976 10974 10973 10971 10969 10965 10962 10963 10956 10952 10949 10946 10943 10936 10933 10932 10926 10921 10918 10913 10907 10902 10899 10898 10892 10889 10884 10883 10885 10885 10886 10883 10877 10874 10876 10883 10887
10981 10979 10977 10976 10974 10973 10971 10969 10968 10966 10963 10961 10958 10954 10954 10950 10946 10942 10939 10937 10933 10923 10918 10914 10908 10903 10898 10890 10885 10879 10874 10871 10868 10862 10860 10860 10861 10861 10863 10862 10860 10859 10863 10870
10971 10970 10968 10967 10965 10965 10964 10962 10960 10958 10956 10954 10951 10947 10941 10938 10935 10932 10928 10925 10921 10911 10905 10900 10894 10888 10882 10874 10864 10855 10854 10850 10845 10842 10838 10838 10841 10835 10838 10838 10843 10844 10846 10848
10961 10961 10960 10960 10958 10957 10956 10954 10952 10950 10948 10945 10941 10940 10934 10931 10926 10921 10916 10910 10906 10900 10889 10885 10878 10870 10862 10852 10843 10831 10828 10828 10825 10822 10821 10823 10826 10821 10817 10820 10823 10828 10828 10829
10954 10952 10953 10952 10950 10950 10948 10945 10943 10942 10940 10938 10933 10930 10924 10921 10916 10910 10904 10899 10894 10888 10885 10870 10864 10852 10840 10829 10815 10805 10798 10803 10804 10812 10810 10805 10816 10809 10805 10806 10804 10809 10810 10813
10945 10944 10945 10941 10943 10942 10938 10936 10934 10931 10930 10928 10924 10920 10914 10910 10904 10900 10893 10885 10879 10872 10865 10853 10845 10832 10818 10799 10783 10771 10767 10771 10782 10787 10792 10795 10793 10789 10788 10784 10784 10789 10793 10798
10936 10936 10935 10934 10933 10933 10928 10927 10924 10922 10918 10917 10913 10909 10905 10898 10892 10886 10881 10871 10863 10857 10850 10835 10826 10814 10793 10769 10748 10740 10741 10746 10753 10763 10775 10775 10771 10772 10773 10770 10768 10769 10773 10778
10927 10927 10926 10926 10922 10923 10917 10916 10915 10912 10906 10905 10901 10894 10892 10888 10883 10877 10872 10862 10854 10845 10835 10829 10812 10797 10773 10747 10730 10722 10724 10731 10740 10748 10751 10753 10756 10756 10756 10754 10757 10758 10759 10763
10917 10917 10916 10915 10913 10913 10906 10905 10906 10902 10895 10894 10893 10886 10883 10877 10870 10862 10858 10852 10844 10835 10823 10809 10796 10779 10757 10738 10725 10719 10718 10723 10730 10737 10742 10744 10745 10746 10745 10747 10748 10749 10751 10752
10906 10906 10906 10902 10902 10900 10893 10889 10898 10888 10881 10885 10878 10875 10869 10863 10857 10849 10844 10840 10834 10824 10814 10800 10786 10771 10752 10738 10727 10723 10722 10726 10732 10736 10737 10737 10736 10737 10739 10738 10739 10739 10739 10741
10898 10895 10892 10889 10890 10888 10880 10882 10879 10874 10873 10868 10865 10861 10856 10852 10846 10841 10833 10827 10820 10812 10804 10795 10779 10768 10756 10743 10735 10729 10729 10728 10729 10728 10729 10730 10731 10732 10732 10731 10732 10733 10732 10732
10884 10881 10880 10877 10876 10872 10868 10864 10865 10860 10858 10854 10849 10845 10842 10838 10832 10826 10820 10814 10808 10802 10795 10789 10781 10767 10756 10746 10738 10732 10729 10728 10727 10726 10726 10726 10727 10726 10725 10725 10726 10727 10727 10726
10871 10865 10865 10861 10860 10853 10853 10852 10847 10845 10843 10838 10833 10828 10823 10821 10817 10811 10806 10802 10796 10793 10790 10781 10766 10756 10754 10746 10737 10732 10728 10726 10724 10724 10722 10721 10721 10720 10720 10721 10721 10719 10718 10717
10855 10849 10847 10845 10843 10839 10831 10829 10830 10831 10827 10821 10818 10814 10810 10806 10803 10797 10792 10788 10784 10782 10780 10770 10745 10744 10748 10745 10735 10730 10726 10724 10722 10720 10718 10716 10715 10714 10714 10714 10713 10712 10711 10709
10836 10831 10828 10827 10824 10823 10818 10810 10805 10804 10804 10801 10799 10796 10791 10790 10788 10781 10776 10773 10770 10769 10768 10770 10767 10751 10744 10736 10728 10723 10720 10717 10716 10714 10712 10710 10708 10708 10707 10706 10705 10704 10702 10700
10814 10811 10807 10808 10798 10798 10800 10795 10787 10784 10783 10780 10779 10774 10773 10770 10771 10764 10759 10757 10754 10752 10751 10749 10745 10739 10732 10725 10717 10716 10713 10710 10709 10708 10706 10704 10701 10700 10698 10697 10696 10694 10691 10689